Location: Julian California
(33.0790°N, 116.6010°W)
Time: 07:35:46
(UTC-07:00)

Cosmos 1954 Rocket - Pass Details

Date: 12 July 2018
Orbit: 752 x 782 km, 74.0° (Epoch: 19 July)

Event Time Altitude Azimuth Distance (km) Brightness Sun altitude
Rises 20:21:40 0° 191° (SSW) 3,182 7.0 -5.3°
Reaches altitude 10° 20:24:00 10° 190° (S) 2,262 6.2 -5.8°
Maximum altitude 20:29:07 77° 105° (ESE) 775 3.9 -6.7°
Drops below altitude 10° 20:34:17 10° 20° (NNE) 2,284 6.6 -7.6°
Sets 20:36:40 0° 19° (NNE) 3,216 7.4 -8.0°
